#timestamp,LO_Frequency,Hit,StdDev 
1624939215.1,286047002.1,N
1624939235.8,286047001.5,N
1624939255.7,286047001.4,N
1624939275.5,286047003.7,N
1624939295.4,286047003.1,N
1624939315.2,286047004.2,N
1624939335.0,286047003.3,N
1624939335.9,286047003.3,N
1624939355.8,286047006.0,Y
1624939375.6,286047004.4,P
1624939395.4,286047002.2,N
1624939415.3,286047003.5,P
1624939435.1,286047001.8,N
1624939455.9,286047001.9,N
1624939475.7,286047001.9,N
1624939495.5,286047001.6,N
1624939515.4,286047003.9,Y
1624939535.2,286047000.6,P
1624939555.0,286047001.0,N
1624939555.9,286047001.0,N
1624939575.8,286046998.1,N
1624939595.6,286046998.1,N
1624939615.5,286047000.1,N
1624939635.3,286047000.8,N
1624939655.1,286046999.0,N
1624939675.9,286047000.8,N
1624939695.7,286047001.2,N
1624939715.6,286046998.2,N
1624939735.4,286047000.7,N
1624939755.2,286047000.8,N
1624939775.1,286046998.5,N
1624939776.0,286046998.5,N
1624939795.8,286046998.4,N
1624939815.7,286046998.8,N
1624939835.5,286046998.1,N
1624939855.3,286046998.9,N
1624939875.2,286046998.3,N
1624939895.9,286046998.2,N
1624939915.7,286047000.8,N
1624939935.6,286046998.4,N
1624939955.4,286047000.8,N
1624939975.2,286046998.4,N
1624939995.1,286046999.3,N
1624939996.0,286046999.3,N
1624940015.9,286046999.5,N
1624940035.7,286046998.6,N
1624940055.5,286046997.1,N
1624940075.4,286046997.2,N
1624940095.2,286046996.7,N
1624940115.1,286046997.6,N
1624940116.0,286046997.6,N
1624940135.8,286046995.9,Y
1624940155.6,286046995.7,P
1624940175.5,286046995.9,N
1624940195.3,286046993.8,P
1624940215.2,286046993.7,Y
1624940235.9,286046996.5,P
1624940255.7,286046998.7,P
1624940275.6,286046998.3,N
1624940295.4,286046999.3,N
1624940315.2,286046998.3,N
1624940335.1,286046998.7,N
1624940336.0,286046998.7,N
1624940355.8,286046998.5,N
1624940375.7,286046998.9,N
1624940395.5,286046998.6,N
1624940415.3,286046999.3,N
1624940435.2,286046998.6,N
1624940455.9,286046998.5,N
1624940475.7,286046999.2,N
1624940495.6,286046996.6,Y
1624940515.4,286047000.5,P
1624940535.3,286047001.0,N
1624940555.1,286047001.1,N
1624940575.8,286047000.4,N
1624940595.7,286047000.5,N
1624940615.5,286046999.9,N
1624940635.3,286046999.7,N
1624940655.2,286047000.0,N
1624940675.0,286046999.7,N
1624940675.9,286046999.7,N
1624940695.8,286047001.9,N
1624940715.6,286047002.7,Y
1624940735.4,286046999.7,P
1624940755.3,286047001.0,P
1624940775.1,286047000.7,N
1624940795.8,286046998.8,N
1624940815.7,286047001.1,N
1624940835.5,286047000.9,N
1624940855.4,286046998.1,N
1624940875.2,286046998.5,N
1624940895.0,286047001.1,N
1624940896.0,286047001.1,N
1624940915.8,286046998.6,N
1624940935.6,286046998.5,N
1624940955.5,286046998.6,N
1624940975.3,286046999.9,N
1624940995.1,286047000.5,N
1624941015.9,286047001.2,N
1624941035.7,286046999.0,N
1624941055.6,286046999.3,N
1624941075.4,286046998.8,N
1624941095.2,286046999.6,N
1624941115.1,286046998.5,N
1624941116.0,286046998.5,N
1624941135.8,286046998.5,N
1624941155.7,286046998.5,N
1624941175.5,286047000.7,N
1624941195.3,286047001.0,N
1624941215.2,286047002.5,N
1624941235.9,286047001.8,N
1624941255.7,286047002.5,N
1624941275.6,286046999.7,N
1624941295.4,286047000.0,N
1624941315.3,286046998.5,N
1624941335.1,286047000.7,N
1624941336.0,286047000.7,N
1624941355.8,286046998.5,N
1624941375.7,286046998.2,N
1624941395.5,286047000.5,N
1624941415.3,286046999.9,N
1624941435.2,286047001.7,N
1624941455.0,286047004.0,Y
1624941455.9,286047004.0,P
1624941475.8,286047004.3,N
1624941495.6,286047002.0,N
1624941515.4,286047001.8,N
1624941535.3,286047004.4,N
1624941555.1,286047001.7,N
1624941575.8,286047004.3,N
1624941595.7,286047001.7,N
1624941615.5,286047003.9,N
1624941635.4,286047003.6,N
1624941655.2,286047002.6,N
1624941675.0,286047004.0,N
1624941675.9,286047004.0,N
1624941695.8,286047003.5,N
1624941715.6,286047002.9,N
1624941735.4,286047003.5,N
1624941755.3,286047003.7,N
1624941775.1,286047003.9,Y
1624941795.9,286047000.6,P
1624941815.7,286046998.2,N
1624941835.5,286046998.8,N
1624941855.4,286046996.5,N
1624941875.2,286046999.5,N
1624941895.0,286046998.9,N
1624941896.0,286046998.9,N
1624941915.8,286046998.8,N
1624941935.6,286046998.5,N
1624941955.5,286047000.5,N
1624941975.3,286047000.8,N
1624941995.2,286047000.5,N
1624942015.9,286046998.5,N
1624942035.7,286046999.0,N
1624942055.6,286046998.7,N
1624942075.4,286047000.2,N
1624942095.2,286047000.8,N
1624942115.1,286046994.9,Y
1624942116.0,286046994.9,P
1624942135.8,286046996.8,N
1624942155.7,286046997.3,N
1624942175.5,286046996.5,N
1624942195.3,286046999.6,N
1624942215.2,286046999.0,N
1624942235.0,286046998.2,N
1624942235.9,286046998.2,N
1624942255.7,286046998.1,N
1624942275.6,286046999.7,N
1624942295.4,286047001.9,N
1624942315.3,286046999.8,N
1624942335.1,286047000.4,N
1624942336.0,286047000.4,N
1624942355.8,286047001.2,N
1624942375.7,286046998.2,N
1624942395.5,286047001.1,N
1624942415.4,286047002.3,N
1624942435.2,286047001.3,N
1624942455.0,286047003.8,N
1624942455.9,286047003.8,N
1624942475.8,286047003.3,N
1624942495.6,286047003.7,N
1624942515.4,286047001.7,N
1624942535.3,286047004.3,N
1624942555.1,286047004.0,N
1624942575.9,286047001.4,N
1624942595.7,286047001.5,N
1624942615.5,286047001.5,N
1624942635.4,286047003.9,N
1624942655.2,286047004.0,N
1624942675.7,286047003.9,N
1624942695.5,286047001.5,N
1624942715.4,286047002.9,N
1624942735.2,286047003.0,N
1624942755.0,286047005.6,N
1624942755.9,286047005.6,N
1624942775.8,286047003.0,N
1624942795.6,286047005.7,Y
